Regional Weather Roundup
Issued by NWS Mt. Holly, NJ

Home | Current Version | Previous Version | Text Only | Print | Product List | Glossary On
Versions: 1 2 3 4 5 6 7 8 9 10 11 12 13 14 15 16 17 18 19 20 21 22 23 24 25 26 27 28 29 30 31 32 33 34 35 36 37 38 39 40 41 42 43 44 45 46 47 48 49 50
841
ASUS41 KPHI 281711
RWRPHI

REGIONAL WEATHER ROUNDUP
NATIONAL WEATHER SERVICE MOUNT HOLLY NJ
100 PM EDT FRI APR 28 2017

NOTE:  "FAIR" INDICATES FEW OR NO CLOUDS BELOW 12,000 FEET WITH NO
SIGNIFICANT WEATHER AND/OR OBSTRUCTIONS TO VISIBILITY.

 * = STATION DOES NOT REPORT PRECIPITATION (E.G. RAIN, SNOW, ETC.)
        OR FOG.

NJZ015>026-281800-
SOUTHERN NEW JERSEY

CITY           SKY/WX    TMP DP  RH WIND       PRES   REMARKS
POMONA         MOSUNNY   80  60  50 S12       30.02S
WILDWOOD*      SUNNY     78  58  49 VRB7      30.05F
MILLVILLE      SUNNY     83  57  41 W9        30.03S
WRIGHTSTOWN    SUNNY     82  55  40 W10G20    29.99S
MOUNT HOLLY    SUNNY     81  54  39 W8        30.01F
TRENTON        SUNNY     81  51  35 SW12G20   30.00F

$$
NJZ001>014-281800-
NORTHERN NEW JERSEY

CITY           SKY/WX    TMP DP  RH WIND       PRES   REMARKS
SUSSEX         MOSUNNY   81  51  35 CALM      29.98F
ANDOVER*         N/A     79  49  34 VRB6      29.99F
MORRISTOWN     MOSUNNY   81  52  36 W12G20    29.99S
NEWARK         MOSUNNY   81  57  43 SW14G20   29.98F
TETERBORO      SUNNY     78  60  53 VRB3      29.97S
CALDWELL       SUNNY     81  52  36 CALM      29.98F
SOMERVILLE     SUNNY     81  52  36 NW10G17   29.98F
ALLAIRE*       SUNNY     82  54  37 SW9       30.01S
TOMS RIVER*    SUNNY     84  55  36 W9        30.01S

$$
PAZ043-044-047-054-055-060>062-066>071-281800-
EASTERN PENNSYLVANIA

CITY           SKY/WX    TMP DP  RH WIND       PRES   REMARKS
PHILADELPHIA   MOSUNNY   82  50  32 SW15      30.01F
NORTH PHILA    SUNNY     82  55  39 W10       30.02F
BLUE BELL*     SUNNY     79  55  44 W8G16     30.03S
DOYLESTOWN     SUNNY     78  50  37 W9        30.01F
QUAKERTOWN*    SUNNY     77  48  36 W5        30.03F
PERKASIE*      FAIR      77  50  38 CALM      30.03S
POTTSTOWN      SUNNY     77  47  34 NW7       30.03F
LANCASTER      SUNNY     76  53  44 NW9       30.03F
COATESVILLE    SUNNY     77  52  41 NW8       30.05F
READING        SUNNY     77  50  38 W7        30.01F
ALLENTOWN      SUNNY     79  48  33 VRB7      30.01S
MOUNT POCONO   SUNNY     73  35  25 W12       30.04S
HAZLETON       SUNNY     75  43  31 SW5       30.07F
LEHIGHTON      FAIR      79  43  27 SW6       30.00F
WILKES BARRE   SUNNY     76  52  43 SW9       30.00F

$$
DEZALL-MDZ008-012-015-019-020-281800-
DELAWARE AND EASTERN MARYLAND

CITY           SKY/WX    TMP DP  RH WIND       PRES   REMARKS
WILMINGTON     SUNNY     81  53  37 W7G17     30.02F
DOVER          SUNNY     81  78  92 CALM      30.02F
GEORGETOWN     PTSUNNY   83  62  49 VRB5      30.04F
EASTON         SUNNY     82  57  42 NE5       30.08F
ABERDEEN       SUNNY     81  52  36 SW9       30.03F
PATUXENT       MOSUNNY   77  64  64 E7        30.05F
OCEAN CITY     SUNNY     74  65  73 S8        30.05F
WALLOPS ISLAND MOSUNNY   80  68  66 SW7       30.06F
CAMBRIDGE      SUNNY     79  59  50 CALM      30.05F
SALISBURY      SUNNY     82  62  50 NE3       30.04F

$$
PAZ001-021-NYZ056-072-MDZ011-DCZ001-281800-
OTHER NEARBY LOCATIONS

CITY           SKY/WX    TMP DP  RH WIND       PRES   REMARKS
HARRISBURG     PTSUNNY   77  50  38 NW8       30.02F
STATE COLLEGE  SUNNY     66  48  52 W6        30.06F
WILLIAMSPORT   SUNNY     73  48  40 W6        30.01F
BINGHAMTON     SUNNY     66  46  48 SW8       30.01F
NEW YORK CITY  SUNNY     79  57  46 VRB6      30.02R
BALTIMORE      MOSUNNY   81  56  42 W6        30.03F
WASHINGTON DC  MOSUNNY   81  60  48 SE5       30.04S

$$




USA.gov is the U.S. government's official web portal to all federal, state and local government web resources and services.